Flag for Canada Weather past 2 weeks in Vancouver, British Columbia, Canada

Now
48 °F

Overcast.


Feels Like: 43 °F
Forecast: 47 / 52 °F
Wind: 13 mph from East

Location: Vancouver International Air-Port

Current Time: Mar 29, 2015 at 5:51:02 AM

Latest Report: Mar 29, 2015 at 5:00 AM


Visibility: 12 mi

Pressure: 30.22 "Hg

Humidity: 87%

Dew point: 45 °F

Location of VancouverLocation

Historic Weather in Vancouver — Graph

°F

Vancouver temperature yesterday

Maximum temperature yesterday: 57 °F (at 1:00 PM)
Minimum temperature yesterday: 48 °F (at 5:58 AM)
Average temperature yesterday: 52 °F

Past Weeks' High & Low Weather Summary

 TemperatureHumidityPressure
High63 °F (Mar 26, 2:00 PM)100% (Mar 14, 4:00 AM)30.31 "Hg (Mar 14, 4:00 AM)
Low37 °F (Mar 16, 7:00 AM)51% (Mar 18, 5:00 PM)29.65 "Hg (Mar 14, 10:00 AM)
Average49 °F86%30.05 "Hg
* Reported Mar 14 4:00 AM — Mar 29 4:00 AM, Vancouver, Weather by CustomWeather, © 2015

Note: Actual official high and low records may vary slightly from our data, if they occured in-between our weather recording intervals... More about our weather records

Advertising

Vancouver weather history for previous 24 hours

 ConditionsComfort  
Time TempWeatherWind HumidityBarometerVisibility
4:00 AM
Sun, Mar 29
48 °FLight rain. Overcast.12 mph87%30.22 "Hg12 mi
3:03 AM48 °FRain. Overcast.13 mph94%30.24 "Hg10 mi
2:00 AM48 °FOvercast.10 mph94%30.26 "Hg12 mi
1:00 AM50 °FLight rain. Overcast.10 mph88%30.27 "Hg12 mi
12:00 AM50 °FLight rain. Overcast.7 mph94%30.28 "Hg12 mi
11:00 PM
Sat, Mar 28
50 °FLight rain. Mostly cloudy.5 mph94%30.29 "Hg10 mi
10:00 PM50 °FLight rain. Mostly cloudy.9 mph94%30.28 "Hg12 mi
9:00 PM50 °FLight rain. Mostly cloudy.8 mph88%30.29 "Hg12 mi
8:00 PM52 °FLight rain. Mostly cloudy.10 mph82%30.28 "Hg12 mi
7:00 PM52 °FOvercast.6 mph77%30.28 "Hg15 mi
6:48 PM54 °FLight rain. Overcast.6 mph72%30.29 "Hg15 mi
6:00 PM54 °FLight rain. Mostly cloudy.7 mph77%30.29 "Hg15 mi
5:00 PM54 °FLight rain. Mostly cloudy.5 mph72%30.29 "Hg20 mi
4:00 PM54 °FLight rain. Mostly cloudy.3 mph72%30.29 "Hg20 mi
3:00 PM55 °FPartly sunny.12 mph63%30.29 "Hg20 mi
2:00 PM55 °FPartly sunny.10 mph63%30.30 "Hg20 mi
1:00 PM57 °FPartly sunny.6 mph59%30.29 "Hg20 mi
12:00 PM54 °FMore clouds than sun.3 mph77%30.27 "Hg20 mi
11:00 AM54 °FBroken clouds.8 mph72%30.24 "Hg20 mi
10:00 AM54 °FScattered clouds.13 mph77%30.21 "Hg20 mi
9:00 AM50 °FPartly sunny.10 mph88%30.18 "Hg20 mi
8:00 AM48 °FPartly sunny.9 mph94%30.12 "Hg15 mi
7:00 AM48 °FSprinkles. Partly cloudy.20 mph87%30.07 "Hg10 mi
6:00 AM48 °FMostly cloudy.16 mph94%30.03 "Hg15 mi
5:58 AM48 °FMostly cloudy.15 mph94%30.03 "Hg15 mi
5:00 AM50 °FOvercast.15 mph76%29.98 "Hg20 mi
Weather by CustomWeather, © 2015

See weather overviewHow to use our weather pages